PEGASUS DEB

Satellite information

Favourite Embed

Satellite Type and Status

DEBRISIN ORBIT

Key statistics

Satellite PEGASUS DEB at a glance.

Uptime

11372

Days in orbit

Revolutions

≈ 14.8

Per day

Orbit

LEO

Low Earth Orbit

Inclination

81.7

Latest

Satellite identification and parameters

Extended collection of information and parameters for PEGASUS DEB.

Object identification

Identified? True

Debris? True

Object name: PEGASUS DEB

International designator: 1994-029AER

Object number (NORAD): 39306

Object ID (CCSDS): 39306

Country: UNITED STATES OF AMERICA (US)

Current information (Y/N): Y

RCS size: SMALL

Orbital parameters

Period: 97.205 minutes

Inclination: 81.7408 deg

SMA: 7003.027 km

Apoapsis: 747.991 km

Periapsis: 501.793 km

RAAN: 243.5094 deg

Eccentricy: 0.017578

Argument of periapsis: 131.4213 deg

Mean anomaly: 230.2257 deg

Mean motion: 14.81405816 rev/day

Mean motion (dot): 0.00035031 rev/day2

B* drag term: 0.0034105 1/REarth

Two-line elements (TLE)

Creation date: July 5, 2025, 5:45 p.m.

Reference frame: TEME

Reference center: EARTH

Epoch: July 5, 2025, 10:44 a.m. UTC

TLE line 0: 0 PEGASUS DEB

TLE line 1: 1 39306U 94029AER 25186.44773017 .00035031 00000-0 34105-2 0 9997

TLE line 2: 2 39306 81.7408 243.5094 0175780 131.4213 230.2257 14.81405816 57024

Live tracking on map

Real-time ground track for satellite PEGASUS DEB.

In-orbit conjunctions

A list of the most updated potential collisions computed for object PEGASUS DEB.

Target Orbit TCA Probability of collision Miss distance Type
RUBIN 8/PSLV SSO 2024-11-16 15:27:57 0.0001022154 429.0 (m) PAYLOAD
NOAA 17 DEB SSO 2024-11-10 09:29:43 0.0005354683 198.0 (m) DEBRIS
DMSP 5D-2 F11 DEB SSO 2024-09-26 23:01:02 0.0002344948 210.0 (m) DEBRIS
CZ-4C R/B SSO 2024-08-03 09:14:57 0.0001954908 49.0 (m) ROCKET BODY

Associated space launch

PEGASUS DEB was lifted into orbit during the mission ‘Pegasus HAPS | Space Test Experiments Platform 2 (STEP-2)’, on board a Pegasus HAPS space rocket.

The launch took place on May 19, 1994, 5:03 p.m. from Edwards Air Force Base.

For more information about the launch, click the button.

Launch to space Pegasus HAPS | Space Test Experiments Platform 2 (STEP-2)
Pegasus HAPS | Space Test Experiments Platform 2 (STEP-2)

Agency: N/A

Status: Launch Successful

Launch date: May 19, 1994, 5:03 p.m. UTC

Rocket: Pegasus HAPS

Launch pad: Edwards Air Force Base

Location: Air launch to orbit

...

Latest news about this satellite

There are no fresh news available about this satellite. Check back as we update our databases every day.


Newsletter sign-up

Weekly statistics, charts and insights to help you stay on top of the space industry.